EW3114 Weather Reports


time (UTC)temp
C
wind
direction
speed
KPH
gust
KPH
rain 1hr
cm
rain 24hr
cm
rain mn
cm
humidity
%
barometer
mb
20260906103047 -17 0.0 0.0 0.00 0.00 0.00 1019.2
20260906101530 -17 0.0 0.0 0.00 0.00 0.00 1019.2
20260906100021 -17 0.0 0.0 0.00 0.00 0.00 1019.2
20260906094504 -17 0.0 0.0 0.00 0.00 0.00 1019.0
20260906093118 -17 76 0.0 0.0 0.00 0.00 0.00 1019.0
20260906091554 22 91 0.0 0.0 0.00 0.00 0.00 80 1018.9
20260906090051 22 84 0.0 0.0 0.00 0.00 0.00 80 1018.8
20260906084546 22 58 0.0 0.0 0.00 0.00 0.00 83 1018.7
20260906083044 22 72 0.0 0.0 0.00 0.00 0.00 82 1018.8
20260906081535 22 159 0.0 0.0 0.00 0.00 0.00 81 1018.8
20260906080038 22 91 0.0 0.0 0.00 0.00 0.00 80 1018.9
20260906074530 22 131 0.0 0.0 0.00 0.00 0.00 1018.8
20260906073026 22 155 0.0 0.0 0.00 0.00 0.00 81 1018.8
20260906071521 23 150 0.0 0.0 0.00 0.00 0.00 81 1019.0
20260906070015 23 116 0.0 0.0 0.00 0.00 0.00 82 1018.9
20260906064510 23 99 0.0 0.0 0.00 0.00 0.00 82 1019.1
20260906063006 23 113 0.0 0.0 0.00 0.00 0.00 82 1019.0
20260906061536 -17 124 0.0 0.0 0.00 0.00 0.00 83 1019.0
20260906060033 22 110 0.0 0.0 0.00 0.00 0.00 84 1019.0
20260906054515 -17 186 0.0 0.0 0.00 0.00 0.00 1018.9
20260906053011 -17 237 0.0 0.0 0.00 0.00 0.00 1018.8
20260906051505 -17 108 0.0 0.0 0.00 0.00 0.00 1018.5
20260906050001 -17 210 0.0 0.0 0.00 0.00 0.00 1018.5
20260906044557 -17 161 0.0 0.0 0.00 0.00 0.00 1018.3
20260906043056 -17 238 0.0 0.0 0.00 0.00 0.00 1018.2
20260906041548 -17 205 0.0 0.0 0.00 0.00 0.00 1017.9
20260906040043 -17 96 0.0 0.0 0.00 0.00 0.00 1017.9
20260906034543 -17 210 0.0 0.0 0.00 0.00 0.00 1017.9
20260906033023 -17 82 0.0 0.0 0.00 0.00 0.00 1018.0
20260906031519 -17 81 0.0 0.0 0.00 0.00 0.00 1017.9
20260906030016 -17 93 0.0 0.0 0.00 0.00 0.00 1017.7
20260906024510 -17 112 0.0 0.0 0.00 0.00 0.00 1017.8
20260906023015 -17 202 0.0 0.0 0.00 0.00 0.00 1017.7
20260906021603 -17 69 0.0 0.0 0.00 0.00 0.00 1017.9
20260906020058 -17 51 0.0 0.0 0.00 0.00 0.00 1017.9
20260906014606 -17 255 0.0 0.0 0.00 0.00 0.00 1017.9
20260906013029 -17 174 0.0 0.0 0.00 0.00 0.00 1017.8
20260906011520 -17 96 0.0 0.0 0.00 0.00 0.00 1017.5
20260906010003 -17 192 0.0 0.0 0.00 0.00 0.00 1017.2
20260906004600 -17 344 0.0 0.0 0.00 0.00 0.00 1017.0
20260906003054 -17 82 0.0 0.0 0.00 0.00 0.00 1017.0
20260906001550 23 109 0.0 0.0 0.00 0.00 0.00 83 1017.0
20260906000046 23 237 0.0 0.0 0.00 0.00 0.00 1016.9
20260905234540 -17 246 0.0 0.0 0.00 0.00 0.00 1017.0
20260905233041 -17 94 0.0 0.0 0.00 0.00 0.00 1017.0
20260905231541 23 141 0.0 0.0 0.00 0.00 0.00 81 1016.8
20260905230017 23 345 0.0 0.0 0.00 0.00 0.00 81 1016.6
20260905224512 24 300 0.0 0.0 0.00 0.00 0.00 79 1016.6
20260905223007 25 165 0.0 0.0 0.00 0.00 0.00 79 1016.8
20260905221506 25 48 0.0 0.0 0.00 0.00 0.00 77 1016.6
20260905220101 25 282 0.0 0.0 0.00 0.00 0.00 76 1016.5
20260905214555 26 293 0.0 0.0 0.00 0.00 0.00 75 1016.3
20260905213048 26 175 0.0 0.0 0.00 0.00 0.00 73 1016.3
20260905211549 27 13 0.0 0.0 0.00 0.00 0.00 72 1016.1
20260905210029 27 78 0.0 0.0 0.00 0.00 0.00 70 1016.2
20260905204522 27 153 0.0 0.0 0.00 0.00 0.00 71 1016.3
20260905203019 27 122 0.0 0.0 0.00 0.00 0.00 70 1016.3
20260905201515 27 125 0.0 0.0 0.00 0.00 0.00 71 1016.2
20260905200013 27 76 0.0 0.0 0.00 0.00 0.00 72 1016.4
20260905194505 27 133 0.0 0.0 0.00 0.00 0.00 70 1016.4
20260905193002 27 91 0.0 0.0 0.00 0.00 0.00 69 1016.5
20260905191556 -17 75 0.0 0.0 0.00 0.00 0.00 100 1016.5
20260905171502 26 60 0.0 0.0 0.00 0.00 0.00 74 1016.4
20260905170057 27 75 0.0 0.0 0.00 0.00 0.00 72 1016.6
20260905164554 28 191 0.0 0.0 0.00 0.00 0.00 1016.5
20260905163048 28 117 0.0 0.0 0.00 0.00 0.00 70 1016.5
20260905161543 -17 11 0.0 0.0 0.00 0.00 0.00 70 1016.5
20260905160029 27 129 0.0 0.0 0.00 0.00 0.00 75 1016.4
20260905154522 26 113 0.0 0.0 0.00 0.00 0.00 75 1016.3
20260905153018 27 222 0.0 0.0 0.00 0.00 0.00 74 1016.1
20260905151514 28 312 0.0 0.0 0.00 0.00 0.00 72 1016.0
20260905150009 27 212 0.0 0.0 0.00 0.00 0.00 71 1015.9
20260905144504 27 136 0.0 0.0 0.00 0.00 0.00 72 1015.7
20260905143100 -17 329 0.0 0.0 0.00 0.00 0.00 1015.6
20260905141555 27 144 0.0 0.0 0.00 0.00 0.00 1015.5
20260905140050 27 51 0.0 0.0 0.00 0.00 0.00 100 1015.4
20260905134541 26 288 0.0 0.0 0.00 0.00 0.00 78 1015.6
20260905133024 26 77 0.0 0.0 0.00 0.00 0.00 79 1015.8
20260905131509 26 1 0.0 0.0 0.00 0.00 0.00 81 1015.5
20260905130002 25 293 0.0 0.0 0.00 0.00 0.00 1015.2
20260905124600 24 348 0.0 0.0 0.00 0.00 0.00 1 1015.1
20260905123052 23 309 0.0 0.0 0.00 0.00 0.00 90 1015.0
20260905121548 -17 0.0 0.0 0.00 0.00 0.00 1014.9
20260905120043 -17 0.0 0.0 0.00 0.00 0.00 1014.7
20260905114539 -17 0.0 0.0 0.00 0.00 0.00 1014.4
20260905113037 -17 0.0 0.0 0.00 0.00 0.00 1014.2
20260905111519 -17 0.0 0.0 0.00 0.00 0.00 1014.0
20260905110019 -17 0.0 0.0 0.00 0.00 0.00 1014.1
20260905104510 -17 0.0 0.0 0.00 0.00 0.00 1014.0